Location: Mentone
(34.5413°N, 85.5351°W)
Time: 19:16:28
(UTC-05:00)

Okean O Rocket - Visible Passes

Search period start: 01 August 2015 00:00
Search period end: 11 August 2015 00:00
Orbit: 623 x 647 km, 98.0° (Epoch: 31 July)

Date Brightness Start Highest point End Pass type
(mag) Time Alt. Az. Time Alt. Az. Time Alt. Az.
01 Aug 4.0 02:51:55 10° ENE 02:54:25 15° E 02:55:16 15° ESE visible
01 Aug 2.3 04:27:01 10° N 04:31:01 36° WNW 04:32:44 26° WSW visible
02 Aug 3.2 03:12:49 10° NE 03:16:31 27° E 03:17:21 26° ESE visible
02 Aug 3.0 04:49:29 10° NNW 04:52:49 21° WNW 04:54:49 15° WSW visible
03 Aug 2.2 03:34:17 10° NNE 03:38:31 50° E 03:39:27 42° SE visible
03 Aug 3.6 05:12:43 10° NW 05:14:33 12° WNW 05:16:10 10° W visible
04 Aug 1.5 03:56:04 10° NNE 04:00:26 87° WNW 04:01:32 50° SSW visible
05 Aug 4.2 02:43:58 10° ENE 02:45:32 12° E 02:46:09 12° E visible
05 Aug 1.9 04:18:06 10° N 04:22:17 47° WNW 04:23:38 34° WSW visible
06 Aug 3.5 03:04:22 10° NE 03:07:41 22° E 03:08:15 21° ESE visible
06 Aug 2.7 04:40:26 10° NNW 04:44:06 26° WNW 04:45:43 21° WSW visible
07 Aug 2.6 03:25:39 10° NNE 03:29:43 39° E 03:30:20 37° ESE visible
07 Aug 3.4 05:03:14 10° NNW 05:05:52 15° WNW 05:07:49 12° W visible
08 Aug 1.6 03:47:19 10° NNE 03:51:40 73° E 03:52:25 58° SSE visible
09 Aug 1.6 04:09:15 10° N 04:13:33 60° WNW 04:14:31 47° SW visible
10 Aug 3.9 02:56:01 10° NE 02:58:50 17° E 02:59:08 17° E visible
10 Aug 2.4 04:31:27 10° N 04:35:22 33° WNW 04:36:36 28° WSW visible
